Alexandria, LA

7:49 AM CST on November 22, 2017 (GMT -0600)
Alexandria International

Weather History for KAEX - January, 2010

Change the Weather History Date:

Monday, January 4, 2010

  Actual Average Record
Temperature  
Mean Temperature 35 °F 49 °F  
Max Temperature 39 °F 59 °F 81 °F (1989)
Min Temperature 30 °F 39 °F 11 °F (1911)
Degree Days  
Heating Degree Days 30 16  
Month to date heating degree days 102 64  
Since 1 July heating degree days 933 853  
Moisture  
Dew Point 26 °F    
Average Humidity 65    
Maximum Humidity 70    
Minimum Humidity 59    
Precipitation  
Precipitation 0.00 in 0.17 in 2.25 in (2007)
Month to date precipitation 0.10 0.58  
Year to date precipitation 0.10 0.58  
Snow  
Snow 0.00 in - 0.00 in ()
Month to date snowfall 0.0  
Since 1 July snowfall 0.2  
Snow Depth 0.00 in    
Sea Level Pressure  
Sea Level Pressure 30.40 in    
Wind  
Wind Speed 8 mph (NNW)    
Max Wind Speed 16 mph    
Max Gust Speed 22 mph    
Visibility 10 miles    
Events      
T = Trace of Precipitation, MM = Missing Value Source: NWS Daily Summary

Daily Weather History Graph

Daily Weather History Graph

Search for Another Location

Airport or City:

Trip Planner

Search our weather history database for the weather conditions in past years. The results will help you decide how hot, cold, wet, or windy it might be!

Date:

Astronomy

Jan. 04, 2010 Rise Set
Actual Time 7:09 AM CST 5:20 PM CST
Civil Twilight 6:43 AM CST 5:47 PM CST
Nautical Twilight 6:13 AM CST 6:17 PM CST
Astronomical Twilight 5:43 AM CST 6:47 PM CST
Moon 10:07 PM CST (1/4) 9:58 AM CST (1/4)
Length of Visible Light 11h 04m
Length of Day
10h 11m
Waning Gibbous, 79% of the Moon is Illuminated
Jan 4
Waning Gibbous
Jan 7
Last Quarter
Jan 15
New
Jan 23
First Quarter
Jan 30
Full

Hourly Weather History & Observations

Time (CST) Temp. Windchill Dew Point Humidity Pressure Visibility Wind Dir Wind Speed Gust Speed Precip Events Conditions
12:53 AM 39.0 °F 34.8 °F 27.0 °F 62% 30.32 in 10.0 mi NNE 5.8 mph - N/A   Overcast
1:53 AM 37.9 °F 34.4 °F 27.0 °F 65% 30.33 in 10.0 mi NNE 4.6 mph - N/A   Overcast
2:53 AM 37.0 °F 32.4 °F 26.1 °F 65% 30.33 in 10.0 mi North 5.8 mph - N/A   Overcast
3:53 AM 37.0 °F 32.4 °F 27.0 °F 67% 30.33 in 10.0 mi NNW 5.8 mph - N/A   Overcast
4:53 AM 36.0 °F 32.1 °F 27.0 °F 70% 30.33 in 10.0 mi North 4.6 mph - N/A   Overcast
5:53 AM 36.0 °F 31.1 °F 26.1 °F 67% 30.35 in 10.0 mi North 5.8 mph - N/A   Overcast
6:53 AM 36.0 °F 29.6 °F 25.0 °F 64% 30.38 in 10.0 mi North 8.1 mph - N/A   Overcast
7:53 AM 36.0 °F 30.3 °F 26.1 °F 67% 30.39 in 10.0 mi NNW 6.9 mph - N/A   Overcast
8:12 AM 35.6 °F 28.0 °F 24.8 °F 65% 30.38 in 10.0 mi NNW 10.4 mph - N/A   Overcast
8:53 AM 36.0 °F 28.0 °F 26.1 °F 67% 30.40 in 10.0 mi NNW 11.5 mph - N/A   Overcast
9:53 AM 36.0 °F 30.3 °F 27.0 °F 70% 30.42 in 10.0 mi NNW 6.9 mph - N/A   Overcast
10:53 AM 36.0 °F 28.5 °F 27.0 °F 70% 30.43 in 10.0 mi NNW 10.4 mph - N/A   Overcast
11:53 AM 35.1 °F 27.9 °F 27.0 °F 72% 30.42 in 10.0 mi NNW 9.2 mph - N/A   Overcast
12:53 PM 36.0 °F 28.0 °F 27.0 °F 70% 30.40 in 10.0 mi NNW 11.5 mph - N/A   Overcast
1:53 PM 37.0 °F 29.8 °F 27.0 °F 67% 30.39 in 10.0 mi NNW 10.4 mph - N/A   Overcast
2:53 PM 37.0 °F 29.8 °F 26.1 °F 65% 30.39 in 10.0 mi NW 10.4 mph 17.3 mph N/A   Overcast
3:53 PM 37.0 °F 28.9 °F 25.0 °F 62% 30.41 in 10.0 mi North 12.7 mph - N/A   Overcast
4:53 PM 36.0 °F 29.6 °F 25.0 °F 64% 30.42 in 10.0 mi North 8.1 mph - N/A   Overcast
5:53 PM 36.0 °F 30.3 °F 26.1 °F 67% 30.43 in 10.0 mi North 6.9 mph - N/A   Overcast
6:16 PM 35.6 °F 28.0 °F 26.6 °F 70% 30.41 in 10.0 mi North 10.4 mph - N/A   Overcast
6:53 PM 35.1 °F 27.9 °F 25.0 °F 67% 30.44 in 10.0 mi NNW 9.2 mph - N/A   Overcast
7:53 PM 35.1 °F 28.6 °F 25.0 °F 67% 30.45 in 10.0 mi NNW 8.1 mph - N/A   Overcast
8:53 PM 34.0 °F 26.0 °F 24.1 °F 67% 30.46 in 10.0 mi North 10.4 mph - N/A   Overcast
9:53 PM 34.0 °F 26.6 °F 24.1 °F 67% 30.47 in 10.0 mi NNW 9.2 mph - N/A   Overcast
10:53 PM 33.1 °F 25.5 °F 23.0 °F 66% 30.47 in 10.0 mi North 9.2 mph - N/A   Overcast
11:19 PM 32.0 °F 25.6 °F 21.2 °F 64% 30.45 in 10.0 mi North 6.9 mph - N/A   Scattered Clouds
11:53 PM 30.9 °F 27.5 °F 21.9 °F 69% 30.46 in 10.0 mi NNW 3.5 mph - N/A   Clear